• In Lithuania
  • List of Countries
  • For 7 days
  • Water Temperature
  • Satellite Maps
  • Weather Map
  • Weather Widgets
  • user-avatar
    Login

    Hourly Weather San Cristóbal

    Today, 23 September, Sunday

    Time Temperature Precipitation Wind Pressure Humidity
    00:00 +22°C° 0.2 mm 1 mps 670 mmHg 79%
    01:00 +21°C° 0 mm 1 mps 670 mmHg 78%
    02:00 +21°C° 0.1 mm 1 mps 670 mmHg 78%
    03:00 +21°C° 0.1 mm 1 mps 670 mmHg 78%
    04:00 +21°C° 0.1 mm 1 mps 670 mmHg 78%
    05:00 +22°C° 0.2 mm 1 mps 670 mmHg 75%
    06:00 +22°C° 0.2 mm 1 mps 671 mmHg 73%
    07:00 +24°C° 0 mm 1 mps 671 mmHg 70%
    08:00 +25°C° 0.4 mm 1 mps 672 mmHg 65%
    09:00 +27°C° 0.4 mm 1 mps 672 mmHg 61%
    10:00 +28°C° 0.4 mm 1 mps 672 mmHg 57%
    11:00 +29°C° 0.3 mm 2 mps 672 mmHg 54%
    12:00 +30°C° 0.3 mm 2 mps 671 mmHg 52%
    13:00 +31°C° 0.3 mm 2 mps 671 mmHg 50%
    14:00 +30°C° 0.4 mm 2 mps 671 mmHg 54%
    15:00 +29°C° 0.4 mm 1 mps 670 mmHg 58%
    16:00 +28°C° 0.4 mm 1 mps 669 mmHg 62%
    17:00 +26°C° 0.6 mm 1 mps 669 mmHg 68%
    18:00 +25°C° 0.6 mm 1 mps 669 mmHg 73%
    19:00 +23°C° 0.6 mm 1 mps 669 mmHg 79%
    20:00 +23°C° 0.6 mm 1 mps 670 mmHg 80%
    21:00 +22°C° 0.6 mm 1 mps 670 mmHg 80%
    22:00 +22°C° 0.6 mm 1 mps 671 mmHg 81%
    23:00 +22°C° 0.7 mm 1 mps 671 mmHg 81%

    Tomorrow, 24 September, Monday

    Time Temperature Precipitation Wind Pressure Humidity
    00:00 +22°C° 0.7 mm 1 mps 671 mmHg 80%
    01:00 +22°C° 0.7 mm 1 mps 670 mmHg 80%
    02:00 +21°C° 0.6 mm 1 mps 670 mmHg 80%
    03:00 +21°C° 0.6 mm 1 mps 670 mmHg 80%
    04:00 +21°C° 0.6 mm 1 mps 670 mmHg 80%
    05:00 +21°C° 1 mm 1 mps 670 mmHg 78%
    06:00 +22°C° 1 mm 1 mps 671 mmHg 76%
    07:00 +22°C° 1 mm 1 mps 671 mmHg 74%
    08:00 +24°C° 0.9 mm 1 mps 672 mmHg 71%
    09:00 +25°C° 0.9 mm 2 mps 672 mmHg 67%
    10:00 +26°C° 0.9 mm 2 mps 673 mmHg 63%
    11:00 +27°C° 0.5 mm 2 mps 673 mmHg 61%
    12:00 +28°C° 0.5 mm 2 mps 672 mmHg 58%
    13:00 +29°C° 0.5 mm 2 mps 672 mmHg 55%
    14:00 +28°C° 0.5 mm 2 mps 671 mmHg 58%
    15:00 +28°C° 0.5 mm 1 mps 671 mmHg 60%
    16:00 +27°C° 0.5 mm 1 mps 670 mmHg 63%
    17:00 +26°C° 0.5 mm 1 mps 670 mmHg 67%
    18:00 +24°C° 0.5 mm 1 mps 670 mmHg 71%
    19:00 +23°C° 0.5 mm 1 mps 671 mmHg 76%
    20:00 +23°C° 0.7 mm 1 mps 671 mmHg 76%
    21:00 +22°C° 0.7 mm 1 mps 672 mmHg 76%
    22:00 +22°C° 0.7 mm 1 mps 672 mmHg 76%
    23:00 +22°C° 1 mm 1 mps 672 mmHg 77%

    Day after tomorrow, 25 September, Tuesday

    Time Temperature Precipitation Wind Pressure Humidity
    00:00 +21°C° 1 mm 1 mps 671 mmHg 78%
    01:00 +21°C° 1 mm 1 mps 671 mmHg 79%
    02:00 +21°C° 1 mm 1 mps 671 mmHg 80%
    03:00 +21°C° 1 mm 1 mps 671 mmHg 80%
    04:00 +21°C° 1 mm 1 mps 670 mmHg 80%
    05:00 +21°C° 1 mm 1 mps 671 mmHg 78%
    06:00 +22°C° 1 mm 1 mps 671 mmHg 76%
    07:00 +22°C° 1 mm 1 mps 672 mmHg 75%
    08:00 +24°C° 0.7 mm 1 mps 673 mmHg 69%
    09:00 +26°C° 0.7 mm 1 mps 673 mmHg 64%
    10:00 +28°C° 0.7 mm 2 mps 674 mmHg 58%
    11:00 +28°C° 0.7 mm 2 mps 673 mmHg 58%
    12:00 +28°C° 0.7 mm 2 mps 673 mmHg 58%
    13:00 +29°C° 0.7 mm 2 mps 672 mmHg 58%
    14:00 +28°C° 1.1 mm 1 mps 671 mmHg 61%
    15:00 +28°C° 1.1 mm 1 mps 671 mmHg 64%
    16:00 +27°C° 1.1 mm 1 mps 670 mmHg 66%
    17:00 +25°C° 0.7 mm 1 mps 670 mmHg 71%
    18:00 +24°C° 0.7 mm 1 mps 670 mmHg 76%
    19:00 +22°C° 0.7 mm 1 mps 670 mmHg 81%
    20:00 +22°C° 0.8 mm 1 mps 671 mmHg 82%
    21:00 +22°C° 0.8 mm 1 mps 671 mmHg 82%
    22:00 +22°C° 0.8 mm 1 mps 672 mmHg 82%
    23:00 +21°C° 0.8 mm 1 mps 671 mmHg 82%

    26 September, Wednesday

    Time Temperature Precipitation Wind Pressure Humidity
    00:00 +21°C° 0.8 mm 1 mps 671 mmHg 82%
    01:00 +21°C° 0.8 mm 1 mps 671 mmHg 82%
    02:00 +21°C° 0.9 mm 1 mps 671 mmHg 81%
    03:00 +21°C° 0.9 mm 1 mps 670 mmHg 80%
    04:00 +21°C° 0.9 mm 1 mps 670 mmHg 80%
    05:00 +21°C° 0.7 mm 1 mps 671 mmHg 77%
    06:00 +22°C° 0.7 mm 1 mps 671 mmHg 74%
    07:00 +23°C° 0.7 mm 1 mps 672 mmHg 72%
    08:00 +25°C° 0.3 mm 1 mps 672 mmHg 65%
    09:00 +28°C° 0.3 mm 1 mps 673 mmHg 58%
    10:00 +30°C° 0.3 mm 1 mps 674 mmHg 52%
    11:00 +30°C° 0.3 mm 1 mps 673 mmHg 51%
    12:00 +31°C° 0.3 mm 1 mps 672 mmHg 50%
    13:00 +31°C° 0.3 mm 1 mps 671 mmHg 49%
    14:00 +30°C° 0.3 mm 1 mps 671 mmHg 50%
    15:00 +30°C° 0.3 mm 1 mps 670 mmHg 51%
    16:00 +29°C° 0.3 mm 1 mps 670 mmHg 53%
    17:00 +27°C° 0.3 mm 1 mps 670 mmHg 61%
    18:00 +25°C° 0.3 mm 1 mps 670 mmHg 68%
    19:00 +23°C° 0.3 mm 1 mps 670 mmHg 76%
    20:00 +23°C° 0.4 mm 1 mps 670 mmHg 77%
    21:00 +22°C° 0.4 mm 1 mps 670 mmHg 79%
    22:00 +21°C° 0.4 mm 1 mps 671 mmHg 80%
    23:00 +21°C° 0.3 mm 1 mps 670 mmHg 79%

    27 September, Thursday

    Time Temperature Precipitation Wind Pressure Humidity
    00:00 +21°C° 0.3 mm 1 mps 670 mmHg 79%
    01:00 +21°C° 0.3 mm 1 mps 670 mmHg 78%
    02:00 +21°C° 0.2 mm 1 mps 670 mmHg 78%
    03:00 +21°C° 0.2 mm 1 mps 670 mmHg 77%
    04:00 +21°C° 0.2 mm 1 mps 670 mmHg 77%
    05:00 +22°C° 0.1 mm 1 mps 670 mmHg 74%
    06:00 +22°C° 0.1 mm 1 mps 671 mmHg 71%
    07:00 +21°C° 0.1 mm 0 mps 672 mmHg 67%
    08:00 +25°C° 0.2 mm 1 mps 672 mmHg 64%
    09:00 +27°C° 0.2 mm 1 mps 673 mmHg 60%
    10:00 +29°C° 0.2 mm 1 mps 673 mmHg 57%
    11:00 +29°C° 0.3 mm 1 mps 672 mmHg 56%
    12:00 +29°C° 0.3 mm 1 mps 672 mmHg 55%
    13:00 +30°C° 0.3 mm 2 mps 671 mmHg 54%
    14:00 +29°C° 0.5 mm 2 mps 670 mmHg 57%
    15:00 +29°C° 0.5 mm 1 mps 670 mmHg 59%
    16:00 +28°C° 0.5 mm 1 mps 669 mmHg 62%
    17:00 +26°C° 0.6 mm 1 mps 670 mmHg 70%
    18:00 +24°C° 0.6 mm 1 mps 670 mmHg 77%
    19:00 +21°C° 0.6 mm 0 mps 670 mmHg 84%
    20:00 +20°C° 1 mm 0 mps 670 mmHg 85%
    21:00 +22°C° 1 mm 1 mps 671 mmHg 86%
    22:00 +22°C° 1 mm 1 mps 671 mmHg 87%
    23:00 +22°C° 1.3 mm 1 mps 671 mmHg 86%

    28 September, Friday

    Time Temperature Precipitation Wind Pressure Humidity
    00:00 +22°C° 1.3 mm 1 mps 670 mmHg 85%
    01:00 +22°C° 1.3 mm 1 mps 670 mmHg 84%
    02:00 +21°C° 1.3 mm 1 mps 670 mmHg 83%
    03:00 +21°C° 1.3 mm 1 mps 670 mmHg 81%
    04:00 +21°C° 1.3 mm 1 mps 670 mmHg 80%
    05:00 +22°C° 1 mm 1 mps 671 mmHg 78%
    06:00 +22°C° 1 mm 1 mps 671 mmHg 75%
    07:00 +23°C° 1 mm 1 mps 672 mmHg 73%
    08:00 +25°C° 0.6 mm 1 mps 672 mmHg 67%
    09:00 +27°C° 0.6 mm 1 mps 673 mmHg 61%
    10:00 +29°C° 0.6 mm 1 mps 673 mmHg 56%
    11:00 +29°C° 0.5 mm 1 mps 672 mmHg 55%
    12:00 +30°C° 0.5 mm 1 mps 672 mmHg 54%
    13:00 +30°C° 0.5 mm 2 mps 671 mmHg 53%
    14:00 +29°C° 0.7 mm 2 mps 670 mmHg 57%
    15:00 +29°C° 0.7 mm 2 mps 670 mmHg 60%
    16:00 +28°C° 0.7 mm 2 mps 670 mmHg 63%
    17:00 +26°C° 0.8 mm 1 mps 670 mmHg 70%
    18:00 +25°C° 0.8 mm 1 mps 670 mmHg 78%
    19:00 +21°C° 0.8 mm 0 mps 670 mmHg 85%
    20:00 +21°C° 0.6 mm 0 mps 671 mmHg 85%
    21:00 +20°C° 0.6 mm 0 mps 671 mmHg 85%
    22:00 +22°C° 0.6 mm 1 mps 671 mmHg 85%
    23:00 +22°C° 0.6 mm 1 mps 671 mmHg 85%
    Show more